This demonstration page uses our WeatherBlox Daily Observations layout. Learn more.

Left ArrowRight Arrow

36.17497, -115.13722

Hourly Observations for August 29, 2019

Temp ( °F °C ) Dew Point ( °F °C ) Humidity (%) Winds ( mph kmh ) Pressure ( in mb ) Visibility ( mi km ) Precip ( " mm )
12:53 am 00:53 Clear 92 33.3 48 8.9 22 22 ENE 17 28 29.86 1011 10 16 0.00 0.00
1:53 am 01:53 Clear 90 32.2 48 8.9 24 24 ENE 12 19 29.87 1012 10 16 0.00 0.00
2:53 am 02:53 Clear 89 31.7 49 9.4 25 25 Calm 29.89 1012 10 16 0.00 0.00
3:53 am 03:53 Clear 87 30.6 50 10 28 28 SSW 3 6 29.90 1013 10 16 0.00 0.00
4:53 am 04:53 Clear 86 30 50 10 29 29 Calm 29.91 1013 10 16 0.00 0.00
5:53 am 05:53 Clear 85 29.4 50 10 30 30 Calm 29.92 1013 10 16 0.00 0.00
6:53 am 06:53 Sunny 84 28.9 50 10 31 31 E 3 6 29.94 1014 10 16 0.00 0.00
7:53 am 07:53 Sunny 88 31.1 53 11.7 30 30 E 8 13 29.95 1014 10 16 0.00 0.00
8:53 am 08:53 Sunny 89 31.7 57 13.9 34 34 ESE 9 15 29.96 1015 10 16 0.00 0.00
9:53 am 09:53 Sunny 92 33.3 56 13.3 30 30 ESE 9 15 29.96 1015 10 16 0.00 0.00
10:53 am 10:53 Sunny 95 35 56 13.3 27 27 ESE 10 17 29.96 1014 10 16 0.00 0.00
11:53 am 11:53 Sunny 98 36.7 54 12.2 23 23 E 12 19 29.93 1014 10 16 0.00 0.00
12:53 pm 12:53 Sunny 101 38.3 50 10 18 18 ESE 9 15 29.90 1013 10 16 0.00 0.00
1:53 pm 13:53 Sunny 103 39.4 47 8.3 15 15 E 7 11 29.87 1011 10 16 0.00 0.00
2:53 pm 14:53 Sunny 105 40.6 44 6.7 13 13 SSE 20 31 29.83 1010 10 16 0.00 0.00
3:53 pm 15:53 Sunny 106 41.1 40 4.4 10 10 S 16 26 29.80 1009 10 16 0.00 0.00
4:53 pm 16:53 Sunny 106 41.1 42 5.6 11 11 SSW 14 22 29.79 1009 10 16 0.00 0.00
5:53 pm 17:53 Sunny 104 40 42 5.6 12 12 SW 10 17 29.79 1009 10 16 0.00 0.00
6:53 pm 18:53 Sunny 102 38.9 42 5.6 13 13 SW 15 24 29.80 1009 10 16 0.00 0.00
7:53 pm 19:53 Clear 100 37.8 43 6.1 14 14 SSW 16 26 29.80 1009 10 16 0.00 0.00
8:53 pm 20:53 Clear 98 36.7 44 6.7 16 16 SSW 13 20 29.83 1010 10 16 0.00 0.00
9:53 pm 21:53 Clear 96 35.6 45 7.2 17 17 S 10 17 29.83 1010 10 16 0.00 0.00
10:53 pm 22:53 Clear 94 34.4 45 7.2 18 18 S 10 17 29.84 1010 10 16 0.00 0.00
11:53 pm 23:53 Clear 93 33.9 46 7.8 20 20 S 12 19 29.83 1010 10 16 0.00 0.00

Powered by AerisWeather